Find Starlink 4373

NORAD ID: 53219 Int'l Des: 2022-084 Owner: SPXS Country: US Constellation: starlink operational
LEOCIRCULARRETROGRADESSO

現在のビュー

3D地球を読み込み中...

Starlink 4373について

説明を読み込み中...

次回通過

Passes for default location (London). Set your location on the main map for personalized predictions.

高度履歴

Loading altitude history...

軌道要素

1 53219U 22084AG 26150.64167125 .00000337 00000-0 27414-4 0 9997
2 53219 97.4253 211.4878 0001141 126.8190 233.3142 15.05651670211713
Epoch: May 30, 2026 • Age: 15 hours

現在のステータス

高度 554.7 km
速度 7.59 km/s
衛星直下点 40.72°N, 54.17°E
打ち上げ日 Jul 22, 2022
運用期間 3.8 years
タイプ internet

技術仕様

分類 Payload
質量 297.00 kg
乾燥質量 275.00 kg
総質量 297.00 kg
長さ 0.20 m
直径 2.80 m
スパン 9.00 m
形状 Box + pan
製造者 SPXS
バスタイプ Starlink
フェーズステータス In Orbit
所有者/国 SPXS/US

Most Searched